Wind_Speed
12 12 12 13 13 12 12 12 12 12 13 13 12 12 12 12 12 12 12 12 12 12 12 12 12 11 11 10 10 9 9 8 8 7 7 7 7 7 7 7 7 7 8
11 11 11 12 12 12 13 13 12 12 12 12 13 13 12 12 12 13 12 12 13 13 12 12 12 11 11 11 10 10 9 9 9 9 8 8 8 8 7 7 7 8 7
12 10 9 10 12 13 13 14 14 14 14 14 13 12 12 11 12 13 13 12 13 13 14 13 12 12 12 11 11 10 9 9 9 9 9 9 8 8 8 8 8 8 8
12 11 11 11 12 13 14 15 14 15 14 13 13 13 12 12 13 13 13 14 13 14 14 13 13 12 12 11 11 10 10 10 9 9 9 9 8 8 8 8 8 8 8
13 13 13 13 12 13 14 15 15 15 14 14 13 13 13 13 13 13 13 13 13 13 14 14 14 13 12 12 11 11 10 10 9 9 8 8 8 8 8 8 9 8 8
14 14 14 13 13 14 14 16 16 15 15 15 15 14 14 14 14 13 13 13 13 14 14 14 14 13 12 12 12 11 11 10 10 9 9 9 9 8 8 8 8 8 8
14 15 14 14 14 14 15 15 16 16 16 15 15 15 14 14 13 13 13 13 13 13 14 14 14 13 13 13 12 11 10 10 10 9 9 9 9 9 9 9 9 9 9
15 15 15 14 14 15 15 16 17 16 16 15 14 15 15 14 14 14 13 13 13 13 13 13 13 13 13 12 12 11 10 10 10 9 9 9 9 9 9 9 9 9 9
14 15 15 15 15 15 15 16 16 17 16 16 15 15 15 15 15 15 14 13 13 13 13 13 13 13 13 12 12 12 11 10 10 10 10 9 9 9 10 10 10 9 9
14 14 14 15 15 15 15 16 17 17 17 17 16 16 16 16 16 15 14 14 13 13 13 13 14 14 13 13 12 12 11 11 11 11 11 11 11 11 11 11 11 10 10
15 15 15 15 15 14 14 15 16 17 17 17 17 16 16 16 16 15 15 14 14 14 14 15 14 14 13 13 12 12 12 12 12 11 11 12 12 12 12 12 11 11 11
15 16 15 15 15 15 15 15 15 16 16 17 17 17 17 16 16 16 16 15 15 15 15 15 14 14 14 14 14 13 13 12 13 13 13 13 13 13 13 13 13 12 12
15 16 16 15 15 15 16 15 16 16 16 16 17 18 17 16 15 15 15 15 15 15 15 15 15 15 15 14 14 14 13 13 13 14 14 14 14 14 14 14 13 13 13
14 14 16 16 15 15 15 16 16 16 16 17 17 17 17 17 16 16 16 16 15 15 15 16 16 16 16 16 15 15 15 15 15 15 15 15 15 15 15 14 14 15 15
14 14 14 15 15 15 16 17 17 17 16 17 17 18 18 18 17 17 17 17 16 16 16 16 16 16 16 16 16 16 16 16 15 16 16 16 16 15 15 15 15 16 17
14 14 14 14 15 16 17 17 17 17 17 17 18 18 18 18 18 18 17 17 17 17 16 17 16 16 16 16 16 16 16 16 16 16 16 16 16 16 17 17 17 18 18
13 13 13 14 16 17 17 18 18 18 19 18 18 18 18 18 18 18 17 17 18 17 17 17 17 16 16 16 16 17 17 17 17 18 18 18 18 18 18 19 19 19 20
13 13 14 14 16 17 18 17 18 18 17 18 18 18 18 18 18 18 18 18 18 18 18 17 16 16 16 16 17 18 19 19 19 19 19 19 20 20 20 20 21 21 22
13 13 13 14 15 16 17 17 17 17 17 17 18 18 19 18 18 18 18 17 17 17 17 17 17 17 18 18 19 19 19 19 20 20 20 20 21 21 21 22 22 23 24
14 14 13 14 15 16 16 17 17 17 18 18 18 18 18 18 19 19 18 18 18 18 18 18 18 19 19 19 20 20 20 21 21 22 22 22 23 23 23 24 25 25 26
16 15 15 16 16 16 16 17 16 16 18 19 19 19 19 18 19 19 19 19 19 19 20 20 20 20 20 21 21 21 22 22 23 24 24 24 24 25 26 26 27 27 28
17 17 16 17 17 17 17 17 18 18 18 19 20 19 20 19 19 20 20 21 21 21 21 21 21 21 22 22 21 22 22 23 23 24 24 24 25 26 27 28 29 29 29
18 18 18 18 18 18 18 18 19 20 20 20 20 20 20 21 21 21 21 20 21 21 22 22 22 22 23 23 23 23 24 24 25 25 26 26 27 28 29 30 31 31 31
19 19 19 19 19 19 20 20 20 20 20 21 21 21 20 21 21 21 22 22 23 23 24 24 24 24 25 25 26 27 27 27 27 28 29 29 29 30 31 32 33 32 33
20 20 20 20 20 20 21 20 20 20 20 21 21 22 22 22 22 23 23 24 25 25 25 25 26 26 27 28 28 29 30 30 30 31 31 31 32 33 34 34 34 35 36
19 19 19 21 22 22 22 22 22 21 21 21 21 22 22 23 24 25 25 26 27 28 28 28 29 29 30 30 30 31 32 32 31 32 32 33 34 35 36 37 37 38 38
Wind_Direction
267 264 262 254 247 241 234 232 230 231 233 233 232 234 236 236 235 232 228 230 233 236 239 238 240 240 240 239 241 239 241 246 252 260 260 260 267 270 275 279 278 279 281
271 268 262 249 243 239 232 233 234 235 235 236 236 235 231 233 235 230 229 232 235 237 236 236 237 238 239 239 237 237 243 247 253 258 262 261 264 268 274 281 281 279 280
269 264 260 249 239 237 232 231 236 236 234 236 237 234 231 233 233 229 230 231 235 237 237 236 235 234 234 235 236 238 244 245 251 257 258 258 263 267 273 277 279 280 277
263 262 259 249 243 236 229 227 231 231 233 234 232 235 230 231 231 229 228 230 233 234 234 234 234 231 231 234 237 241 242 244 250 255 256 256 258 266 271 275 276 279 277
258 260 259 251 242 234 229 228 229 230 230 233 233 231 229 231 231 231 229 231 235 236 232 232 231 230 232 234 237 241 243 244 247 251 252 252 256 265 271 275 276 277 278
258 258 257 250 244 239 235 232 230 230 230 233 231 228 228 230 231 229 228 232 234 233 232 232 231 230 231 232 236 240 241 242 244 246 247 250 256 264 269 273 275 278 280
256 255 253 249 245 241 238 235 230 230 230 233 231 226 225 226 228 226 230 231 232 230 228 230 229 228 230 232 233 235 238 238 240 241 243 250 258 262 267 272 276 280 281
254 254 253 249 245 243 239 235 231 230 230 232 232 227 223 224 226 228 231 231 231 229 228 227 226 228 230 233 231 230 233 235 237 239 244 251 257 263 268 272 277 279 279
254 252 248 246 245 243 239 233 229 228 229 230 232 227 223 224 225 228 231 230 230 229 227 223 225 227 229 231 230 229 232 234 239 243 250 255 258 265 268 271 275 278 280
253 249 242 240 242 241 237 236 230 228 228 228 228 225 223 225 226 227 228 228 228 228 226 223 224 226 226 228 230 231 233 238 241 246 252 257 262 267 269 271 274 277 280
251 245 242 242 242 241 238 238 233 229 228 227 225 225 224 227 228 226 226 227 226 228 227 227 226 227 228 230 234 234 237 241 244 249 254 259 263 266 270 272 274 276 278
251 246 244 241 243 242 236 236 233 228 226 225 224 225 226 228 229 227 226 226 227 229 229 227 225 226 230 233 235 237 242 246 249 253 257 260 262 266 269 271 273 275 278
250 247 245 245 244 240 235 232 229 228 227 225 224 223 225 228 228 227 226 226 227 230 228 227 227 230 233 236 239 243 248 252 255 257 260 262 264 267 269 269 270 274 277
247 248 244 243 243 238 234 231 230 231 232 230 224 222 224 228 229 226 225 225 228 229 229 229 232 236 237 240 243 248 253 256 259 261 262 262 264 265 267 270 271 273 274
248 248 245 242 240 237 235 233 234 234 231 228 223 222 224 228 230 229 228 228 231 232 231 232 236 239 242 245 246 250 254 257 261 263 263 261 262 265 270 273 274 274 274
246 247 243 240 237 237 238 237 236 233 229 228 225 223 224 228 229 230 232 232 230 231 234 236 239 241 244 247 251 254 256 257 261 264 264 264 265 266 270 273 275 276 277
243 244 242 241 239 239 239 237 235 232 229 226 224 224 225 226 227 228 231 232 231 233 239 240 240 242 245 251 256 257 258 259 261 264 266 266 266 268 270 272 276 278 279
245 246 246 247 242 239 235 234 232 230 229 226 225 224 226 229 231 229 229 233 235 237 239 242 243 246 251 255 258 260 261 261 263 264 268 269 268 268 271 273 276 278 280
244 245 246 244 239 234 231 232 233 230 230 230 229 229 231 231 230 230 232 236 237 239 241 242 246 250 254 256 260 261 261 262 264 266 268 270 270 271 273 275 278 280 281
245 246 246 244 239 234 233 234 235 232 230 230 231 230 228 230 231 232 235 238 240 242 246 249 250 253 256 258 261 262 262 264 266 268 270 270 272 273 275 278 279 281 282
244 245 245 243 240 236 234 234 234 232 231 232 234 231 231 232 233 236 238 241 244 247 250 251 254 256 258 259 262 264 264 265 266 270 272 271 272 274 276 278 280 280 282
247 246 245 243 239 237 235 234 234 235 234 232 232 233 233 234 237 238 241 246 248 250 252 253 255 256 258 259 262 265 266 267 269 271 273 272 273 275 277 279 281 282 283
244 245 243 243 238 235 235 235 237 237 235 233 234 235 239 241 242 243 244 247 249 250 252 255 256 257 260 261 263 266 268 269 270 271 272 271 273 275 277 280 282 282 283
246 245 244 242 238 237 238 237 239 239 237 236 237 239 242 243 244 246 248 249 251 253 256 258 259 260 262 264 265 267 269 270 269 270 271 272 275 277 278 281 281 283 285
246 243 244 242 240 239 239 239 237 237 238 238 240 241 243 245 246 247 250 252 254 257 259 260 262 263 264 266 268 269 272 272 270 270 272 274 277 279 280 282 283 283 284
243 241 242 240 240 239 239 239 240 241 242 243 243 244 246 248 250 250 252 255 257 258 260 262 263 264 266 268 270 272 272 272 271 272 274 275 277 279 280 282 282 284 285
Height
5845 5845 5845 5845 5846 5848 5849 5850 5852 5854 5855 5857 5858 5859 5861 5862 5864 5865 5866 5868 5869 5871 5873 5874 5876 5877 5878 5880 5881 5882 5883 5884 5884 5885 5885 5886 5886 5886 5886 5886 5886 5886 5885
5842 5842 5842 5842 5844 5845 5846 5848 5850 5851 5853 5854 5856 5857 5858 5860 5861 5863 5864 5866 5867 5869 5870 5872 5874 5875 5876 5878 5879 5880 5881 5882 5883 5883 5884 5884 5885 5884 5884 5884 5884 5884 5884
5839 5839 5840 5840 5841 5843 5844 5846 5848 5849 5850 5852 5853 5855 5856 5857 5859 5860 5862 5864 5865 5867 5868 5870 5872 5873 5874 5876 5877 5878 5879 5880 5881 5881 5882 5883 5883 5883 5883 5883 5882 5882 5882
5836 5837 5838 5838 5838 5840 5841 5843 5844 5846 5847 5849 5850 5852 5854 5855 5857 5858 5860 5861 5863 5864 5866 5867 5869 5871 5872 5874 5875 5877 5877 5878 5879 5879 5880 5881 5881 5881 5881 5881 5881 5881 5880
5834 5834 5835 5835 5836 5837 5838 5840 5841 5843 5845 5847 5848 5849 5851 5853 5854 5856 5858 5859 5860 5862 5863 5865 5867 5869 5871 5872 5873 5874 5875 5876 5877 5878 5878 5879 5879 5879 5880 5880 5880 5879 5879
5830 5831 5831 5832 5833 5835 5836 5837 5838 5840 5842 5844 5845 5847 5848 5850 5852 5854 5855 5857 5858 5860 5861 5863 5865 5867 5868 5870 5871 5872 5873 5874 5875 5876 5877 5877 5878 5878 5878 5878 5878 5878 5877
5827 5827 5828 5829 5830 5831 5832 5834 5835 5837 5839 5841 5842 5844 5846 5848 5850 5851 5853 5854 5856 5857 5859 5861 5863 5865 5866 5868 5869 5870 5871 5872 5873 5874 5875 5875 5876 5876 5876 5876 5876 5876 5876
5823 5824 5824 5825 5826 5827 5829 5830 5832 5834 5836 5837 5839 5841 5843 5845 5847 5849 5851 5852 5854 5856 5857 5859 5860 5862 5864 5865 5867 5868 5869 5871 5872 5872 5873 5874 5874 5874 5875 5875 5875 5874 5874
5820 5821 5821 5822 5823 5824 5826 5827 5828 5831 5832 5834 5836 5837 5840 5842 5844 5846 5848 5850 5852 5853 5855 5856 5858 5860 5862 5863 5865 5866 5867 5869 5870 5871 5871 5872 5872 5872 5873 5873 5873 5873 5872
5816 5817 5818 5819 5821 5822 5823 5823 5825 5827 5829 5831 5833 5835 5837 5840 5841 5843 5845 5847 5849 5851 5852 5854 5856 5857 5859 5861 5863 5864 5865 5867 5868 5868 5869 5870 5870 5870 5870 5871 5870 5870 5870
5812 5814 5815 5816 5817 5819 5820 5821 5822 5824 5826 5828 5830 5832 5834 5837 5838 5840 5842 5844 5846 5848 5850 5851 5853 5855 5857 5859 5860 5862 5863 5864 5865 5866 5867 5867 5868 5868 5868 5868 5868 5868 5868
5809 5810 5811 5813 5814 5815 5816 5817 5819 5820 5823 5825 5827 5829 5832 5834 5836 5838 5839 5841 5843 5845 5847 5849 5851 5853 5854 5856 5857 5859 5860 5862 5863 5863 5864 5865 5865 5865 5865 5865 5865 5865 5865
5806 5807 5808 5809 5810 5811 5812 5814 5815 5817 5819 5822 5824 5826 5829 5831 5833 5835 5837 5838 5840 5842 5844 5846 5848 5850 5851 5853 5855 5856 5857 5859 5859 5860 5861 5861 5862 5862 5862 5862 5862 5862 5862
5802 5803 5804 5805 5806 5807 5809 5811 5812 5814 5816 5819 5821 5823 5826 5828 5830 5832 5834 5836 5838 5839 5841 5843 5845 5846 5848 5850 5851 5853 5854 5855 5856 5857 5857 5858 5858 5858 5858 5858 5858 5858 5858
5798 5799 5800 5801 5803 5804 5806 5808 5809 5811 5813 5815 5817 5820 5823 5825 5827 5829 5831 5833 5835 5836 5838 5840 5842 5843 5845 5846 5848 5849 5850 5852 5852 5853 5853 5854 5854 5854 5855 5854 5854 5854 5854
5794 5796 5796 5798 5799 5801 5803 5804 5806 5808 5810 5812 5814 5817 5819 5821 5824 5826 5828 5829 5831 5833 5835 5837 5838 5840 5841 5843 5844 5845 5846 5847 5848 5849 5849 5849 5850 5850 5850 5850 5850 5850 5849
5791 5792 5793 5794 5795 5797 5799 5801 5802 5805 5807 5809 5811 5814 5816 5818 5820 5822 5824 5826 5828 5830 5832 5833 5835 5836 5838 5839 5840 5841 5842 5843 5844 5844 5845 5845 5846 5846 5846 5846 5845 5845 5844
5788 5789 5789 5790 5791 5793 5795 5797 5799 5801 5803 5806 5808 5810 5813 5815 5817 5819 5821 5823 5825 5826 5828 5830 5831 5832 5834 5835 5836 5837 5838 5838 5839 5840 5840 5840 5841 5841 5841 5841 5840 5839 5838
5784 5785 5786 5787 5788 5789 5791 5794 5796 5798 5800 5802 5804 5807 5809 5811 5813 5815 5817 5819 5821 5823 5824 5826 5827 5828 5829 5830 5831 5832 5833 5833 5834 5835 5835 5835 5835 5835 5835 5835 5834 5833 5832
5781 5782 5783 5784 5785 5787 5789 5791 5793 5795 5797 5799 5801 5803 5805 5807 5810 5812 5814 5816 5818 5819 5821 5822 5823 5824 5825 5826 5826 5827 5828 5828 5829 5829 5829 5829 5829 5829 5829 5828 5828 5827 5825
5776 5778 5779 5780 5782 5784 5786 5788 5790 5792 5794 5795 5797 5799 5802 5804 5806 5808 5810 5812 5813 5815 5816 5818 5819 5819 5820 5821 5821 5822 5822 5823 5823 5823 5823 5823 5823 5822 5822 5821 5820 5819 5818
5772 5773 5775 5777 5779 5781 5783 5785 5786 5788 5790 5792 5793 5795 5798 5800 5802 5804 5806 5807 5809 5810 5811 5812 5813 5814 5814 5815 5815 5816 5816 5816 5817 5817 5817 5816 5816 5815 5814 5814 5813 5811 5810
5768 5769 5771 5772 5774 5777 5779 5781 5782 5784 5786 5788 5790 5792 5793 5795 5797 5799 5801 5802 5803 5805 5806 5807 5808 5808 5809 5809 5809 5809 5810 5810 5810 5810 5809 5809 5809 5808 5807 5806 5804 5802 5801
5763 5765 5766 5768 5770 5772 5774 5776 5778 5780 5781 5784 5785 5787 5789 5790 5792 5794 5795 5797 5798 5799 5800 5801 5801 5802 5803 5803 5803 5803 5803 5802 5802 5802 5801 5801 5800 5800 5798 5797 5795 5793 5791
5758 5760 5761 5763 5765 5767 5769 5771 5773 5775 5777 5779 5781 5782 5784 5785 5787 5788 5790 5791 5792 5793 5794 5794 5795 5795 5796 5796 5796 5795 5795 5795 5794 5793 5793 5793 5792 5791 5789 5787 5785 5784 5782
5753 5754 5756 5758 5760 5762 5764 5766 5768 5770 5772 5774 5775 5777 5778 5780 5781 5782 5783 5784 5785 5786 5786 5787 5787 5788 5788 5788 5788 5787 5787 5786 5786 5785 5784 5783 5782 5781 5780 5778 5776 5773 5771